星链-37914(STARLINK-37914)

导读

STARLINK-37914(NORAD编号69964)是美国太空探索技术公司(SpaceX)星链低轨通信星座的成员,属于2026年部署的星链V2 Mini批次卫星,推测于2026年5-6月由猎鹰9号火箭发射入轨,运行在高度约550公里、周期约93分钟的近地轨道。 该星是星链第二代过渡型卫星,单星通信容量较初代提升4倍,支持Ku/Ka频段高速通信,设计寿命5年,主要承担全球低时延、高速互联网接入服务,为偏远地区、地面通信覆盖薄弱区域提供网络支撑。目前星链全球活跃用户超270万,该卫星正稳定在轨运行,参与组网服务。

Basic Information
目录编号:
69964
目录名称:
STARLINK-37914
国际标识:
2026-157X
轨道中心:
EARTH
卫星名称:
星链-37914
卫星全名:
星链-37914(STARLINK-37914)
卫星状态:
在轨 (已飞行57 天)
发射日期:
2026-07-09 UTC
国别 :
美国 (US)
星等 :
--
Orbit Information
数据来源 国际轨道数据
星历时间: 2026-09-04T04:00:02+0800
7小时前
查看轨道信息
半长轴: 6840.907km
偏心率: 0.000123
轨道倾角: 53.160°
近地点辐角 87.698°
升交点赤经 51.614°
平近点角 302.048°
近地点: 461.928km
远地点: 463.612km
周期: 93.849分钟
每日圈数: 15.343778
Detailed Information
固有亮度:
5
最大亮度:
2.5
卫星平台:
Starlink V1.0
覆盖范围:
全球
运营商:
太空探索技术公司
运营商所在国:
美国
制造商(研发单位):
太空探索技术公司
制造商所在国:
美国
使用方式:
暂无
Satellite Introduction
Starlink 计划是 SpaceX 推出的全球卫星互联网项目,通过发射低轨道卫星,为全球尤其是偏远地区提供高速、低延迟的互联网服务。自 2019 年起,Starlink 已部署数千颗卫星,旨在缩小全球数字鸿沟,推动互联网普及。该项目还为军事、航空等行业提供通信支持,带来广泛经济效益。
2D Orbit Map
3D Orbit Map
Orbit Altitude Analysis Chart
Orbit Inclination Analysis Chart
Orbit Comprehensive Analysis Chart
View Comprehensive Chart
Conjunction Data List
Event ID Objects TCA Miss Dist (km) Collision Risk Probability Collision Risk Index (CRI) Action
CDM_260905-072406-195606-996421
2026-09-05T
07:24:46+0000
0.483 km
远距离
6.937676E-5 中风险 0.72
CDM_260904-070606-419306-996421
2026-09-04T
07:06:12+0000
0.802 km
远距离
3.422781E-5 中风险 0.66
CDM_260904-154206-419306-996421
2026-09-04T
15:42:04+0000
0.913 km
远距离
2.219911E-5 中风险 0.62
CDM_260905-145505-177006-996421
2026-09-05T
14:55:36+0000
2.516 km
极远距离
1.538006E-6 低风险 0.39
CDM_260905-050406-195606-996421
2026-09-05T
05:04:05+0000
1.623 km
极远距离
1.47263E-6 低风险 0.38
CDM_260829-022505-839506-996421
2026-08-29T
02:25:30+0000
2.962 km
极远距离
1.211058E-6 低风险 0.37
CDM_260904-084006-419306-996421
2026-09-04T
08:40:00+0000
2.840 km
极远距离
9.517618E-7 极低风险 0.35
CDM_260901-072205-326706-996421
2026-09-01T
07:22:14+0000
2.891 km
极远距离
7.908216E-7 极低风险 0.33